LEMUR-2-LIU-POU-CHUN (43054 NORAD) Tracking and Keplerian Element Data

This shows tracking and keplerian element data for the satellite.

Feedback or suggestion? Click here.




ElementValue
Catalog43054
NameLEMUR-2-LIU-POU-CHUN
Epoch Orbit21476
Epoch Day268.46267997
Epoch Year2021
RAAN260.9042
Inclination51.631
Eccentricity0.0002068
Argument of Perigee72.1415
Mean Anonmoly287.9804
Mean Motion15.60557909
Decay Rate0.00048408
L11 43054U 17071T 21268.46267997 .00048408 00000-0 57754-3 0 9996
L22 43054 51.6310 260.9042 0002068 72.1415 287.9804 15.60557909214768

Live tracking and technical data element details for LEMUR-2-LIU-POU-CHUN (NORAD 43054). LEMUR-2-LIU-POU-CHUN can be tracked NOW for your location showing map with azimuth and elevation plus other details from your city location.

Track the satellite on the map from your city or location and see movement details for azimuth, elevation, latitude, longitude, range, height, and movement on the map or in text.







IsCatalogInMostPopularTable: catalog: 43054, numindb: 545
Update: records affected: 1



GetName: 43054 LEMUR-2-LIU-POU-CHUN

Hit Count: updated at: Mon, 27 Sep 2021 01:32:55 GMT